When you browse on this site, cookies collect data to enhance your experience and personalize the content and advertising you see.
Visit our Privacy Policy to learn more. By continuing to use the site, you agree to this use of cookies and data.
  • En España
  • Lista de países
  • Para 7 días
  • Temperatura del agua
  • El tiempo en el mapa
  • Informadores
  • user-avatar
    Iniciar sesión

    Tiempo cada hora Kilmarnock

    Hoy, 30 Mayo, Sábado

    Tiempo Temperatura Precipitaciones Viento Presión Humedad
    00:00 +15°C° 0 mm 2 mps 764 mmHg 86%
    01:00 +15°C° 0 mm 2 mps 764 mmHg 87%
    02:00 +14°C° 0 mm 2 mps 764 mmHg 89%
    03:00 +14°C° 0 mm 2 mps 764 mmHg 91%
    04:00 +15°C° 0 mm 2 mps 764 mmHg 89%
    05:00 +15°C° 0 mm 2 mps 765 mmHg 87%
    06:00 +16°C° 0 mm 1 mps 765 mmHg 85%
    07:00 +17°C° 0 mm 2 mps 765 mmHg 79%
    08:00 +18°C° 0 mm 2 mps 765 mmHg 73%
    09:00 +20°C° 0 mm 2 mps 764 mmHg 67%
    10:00 +20°C° 0 mm 2 mps 764 mmHg 65%
    11:00 +21°C° 0 mm 3 mps 764 mmHg 63%
    12:00 +22°C° 0 mm 3 mps 764 mmHg 60%
    13:00 +21°C° 0 mm 3 mps 764 mmHg 61%
    14:00 +21°C° 0 mm 4 mps 764 mmHg 61%
    15:00 +21°C° 0 mm 4 mps 764 mmHg 61%
    16:00 +21°C° 0 mm 4 mps 764 mmHg 64%
    17:00 +20°C° 0 mm 3 mps 764 mmHg 67%
    18:00 +20°C° 0 mm 3 mps 764 mmHg 70%
    19:00 +18°C° 0 mm 3 mps 764 mmHg 74%
    20:00 +16°C° 0 mm 3 mps 764 mmHg 78%
    21:00 +14°C° 0 mm 4 mps 765 mmHg 82%
    22:00 +13°C° 0 mm 4 mps 765 mmHg 83%
    23:00 +12°C° 0 mm 3 mps 765 mmHg 84%

    Mañana, 31 Mayo, Domingo

    Tiempo Temperatura Precipitaciones Viento Presión Humedad
    00:00 +11°C° 0 mm 3 mps 765 mmHg 85%
    01:00 +11°C° 0 mm 3 mps 765 mmHg 85%
    02:00 +10°C° 0 mm 3 mps 765 mmHg 85%
    03:00 +10°C° 0 mm 4 mps 765 mmHg 85%
    04:00 +11°C° 0 mm 3 mps 765 mmHg 84%
    05:00 +11°C° 0 mm 3 mps 765 mmHg 83%
    06:00 +11°C° 0 mm 3 mps 766 mmHg 81%
    07:00 +13°C° 0 mm 3 mps 766 mmHg 76%
    08:00 +15°C° 0 mm 4 mps 765 mmHg 71%
    09:00 +17°C° 0 mm 4 mps 765 mmHg 65%
    10:00 +18°C° 0 mm 4 mps 766 mmHg 61%
    11:00 +19°C° 0 mm 4 mps 766 mmHg 57%
    12:00 +20°C° 0 mm 4 mps 766 mmHg 53%
    13:00 +20°C° 0 mm 4 mps 766 mmHg 53%
    14:00 +21°C° 0 mm 4 mps 766 mmHg 52%
    15:00 +21°C° 0 mm 3 mps 765 mmHg 52%
    16:00 +21°C° 0 mm 3 mps 765 mmHg 56%
    17:00 +20°C° 0 mm 2 mps 765 mmHg 61%
    18:00 +20°C° 0 mm 2 mps 765 mmHg 65%
    19:00 +18°C° 0 mm 2 mps 765 mmHg 70%
    20:00 +16°C° 0 mm 2 mps 766 mmHg 76%
    21:00 +14°C° 0 mm 2 mps 766 mmHg 81%
    22:00 +13°C° 0 mm 2 mps 766 mmHg 84%
    23:00 +13°C° 0 mm 2 mps 766 mmHg 87%

    Pasado mañana, 1 Junio, Lunes

    Tiempo Temperatura Precipitaciones Viento Presión Humedad
    00:00 +12°C° 0 mm 2 mps 766 mmHg 90%
    01:00 +12°C° 0 mm 2 mps 766 mmHg 90%
    02:00 +10°C° 0 mm 2 mps 766 mmHg 90%
    03:00 +10°C° 0 mm 2 mps 767 mmHg 91%
    04:00 +12°C° 0 mm 2 mps 767 mmHg 88%
    05:00 +12°C° 0 mm 2 mps 767 mmHg 85%
    06:00 +13°C° 0 mm 2 mps 767 mmHg 83%
    07:00 +15°C° 0 mm 2 mps 767 mmHg 76%
    08:00 +17°C° 0 mm 2 mps 767 mmHg 70%
    09:00 +18°C° 0 mm 2 mps 767 mmHg 64%
    10:00 +19°C° 0 mm 2 mps 767 mmHg 60%
    11:00 +20°C° 0 mm 2 mps 767 mmHg 56%
    12:00 +21°C° 0 mm 2 mps 767 mmHg 52%
    13:00 +21°C° 0 mm 2 mps 767 mmHg 52%
    14:00 +21°C° 0 mm 2 mps 766 mmHg 53%
    15:00 +23°C° 0 mm 2 mps 766 mmHg 53%
    16:00 +21°C° 0 mm 2 mps 766 mmHg 58%
    17:00 +20°C° 0 mm 2 mps 766 mmHg 63%
    18:00 +20°C° 0 mm 2 mps 765 mmHg 68%
    19:00 +19°C° 0 mm 1 mps 765 mmHg 74%
    20:00 +16°C° 0 mm 1 mps 765 mmHg 79%
    21:00 +14°C° 0 mm 1 mps 766 mmHg 85%
    22:00 +14°C° 0 mm 1 mps 765 mmHg 84%
    23:00 +13°C° 0 mm 1 mps 765 mmHg 83%

    2 Junio, Martes

    Tiempo Temperatura Precipitaciones Viento Presión Humedad
    00:00 +13°C° 0 mm 1 mps 765 mmHg 83%
    01:00 +12°C° 0 mm 1 mps 765 mmHg 82%
    02:00 +12°C° 0 mm 1 mps 764 mmHg 81%
    03:00 +12°C° 0 mm 1 mps 764 mmHg 80%
    04:00 +12°C° 0 mm 0 mps 764 mmHg 78%
    05:00 +12°C° 0 mm 0 mps 763 mmHg 77%
    06:00 +13°C° 0 mm 0 mps 763 mmHg 76%
    07:00 +15°C° 0 mm 1 mps 763 mmHg 74%
    08:00 +18°C° 0 mm 1 mps 763 mmHg 71%
    09:00 +19°C° 0 mm 1 mps 762 mmHg 69%
    10:00 +19°C° 0 mm 2 mps 762 mmHg 67%
    11:00 +19°C° 0 mm 2 mps 762 mmHg 65%
    12:00 +20°C° 0 mm 2 mps 761 mmHg 64%
    13:00 +20°C° 0.1 mm 2 mps 761 mmHg 64%
    14:00 +20°C° 0.1 mm 2 mps 760 mmHg 64%
    15:00 +20°C° 0.1 mm 3 mps 760 mmHg 65%
    16:00 +19°C° 0.1 mm 3 mps 759 mmHg 68%
    17:00 +19°C° 0.1 mm 3 mps 759 mmHg 70%
    18:00 +18°C° 0.1 mm 3 mps 759 mmHg 73%
    19:00 +17°C° 0.2 mm 3 mps 759 mmHg 79%
    20:00 +15°C° 0.2 mm 2 mps 759 mmHg 85%
    21:00 +14°C° 0.2 mm 2 mps 759 mmHg 91%
    22:00 +13°C° 0.2 mm 2 mps 759 mmHg 91%
    23:00 +12°C° 0.2 mm 3 mps 759 mmHg 91%

    3 Junio, Miércoles

    Tiempo Temperatura Precipitaciones Viento Presión Humedad
    00:00 +11°C° 0.2 mm 3 mps 759 mmHg 92%
    01:00 +11°C° 0.3 mm 4 mps 759 mmHg 91%
    02:00 +11°C° 0.3 mm 4 mps 759 mmHg 90%
    03:00 +10°C° 0.3 mm 5 mps 759 mmHg 90%
    04:00 +10°C° 0.3 mm 5 mps 759 mmHg 90%
    05:00 +10°C° 0.3 mm 5 mps 759 mmHg 90%
    06:00 +10°C° 0.3 mm 5 mps 760 mmHg 91%
    07:00 +11°C° 0 mm 6 mps 760 mmHg 86%
    08:00 +11°C° 0 mm 7 mps 761 mmHg 81%
    09:00 +12°C° 0 mm 7 mps 761 mmHg 76%
    10:00 +12°C° 0 mm 7 mps 761 mmHg 74%
    11:00 +12°C° 0 mm 7 mps 762 mmHg 72%
    12:00 +12°C° 0 mm 7 mps 762 mmHg 70%
    13:00 +12°C° 0 mm 7 mps 762 mmHg 68%
    14:00 +14°C° 0 mm 7 mps 762 mmHg 65%
    15:00 +14°C° 0 mm 7 mps 762 mmHg 62%
    16:00 +13°C° 0 mm 6 mps 762 mmHg 64%
    17:00 +13°C° 0 mm 6 mps 762 mmHg 65%
    18:00 +11°C° 0 mm 6 mps 762 mmHg 66%
    19:00 +10°C° 0 mm 5 mps 762 mmHg 70%
    20:00 +8°C° 0 mm 5 mps 763 mmHg 74%
    21:00 +7°C° 0 mm 4 mps 763 mmHg 78%
    22:00 +6°C° 0 mm 4 mps 763 mmHg 81%
    23:00 +5°C° 0 mm 3 mps 763 mmHg 84%

    4 Junio, Jueves

    Tiempo Temperatura Precipitaciones Viento Presión Humedad
    00:00 +4°C° 0 mm 3 mps 763 mmHg 87%
    01:00 +4°C° 0 mm 3 mps 762 mmHg 89%
    02:00 +4°C° 0 mm 2 mps 762 mmHg 90%
    03:00 +4°C° 0 mm 2 mps 762 mmHg 91%
    04:00 +5°C° 0 mm 2 mps 761 mmHg 87%
    05:00 +6°C° 0 mm 2 mps 761 mmHg 84%
    06:00 +8°C° 0 mm 1 mps 761 mmHg 80%
    07:00 +9°C° 0 mm 1 mps 761 mmHg 74%
    08:00 +11°C° 0 mm 1 mps 760 mmHg 68%
    09:00 +12°C° 0 mm 1 mps 760 mmHg 63%
    10:00 +13°C° 0 mm 1 mps 759 mmHg 61%
    11:00 +14°C° 0 mm 2 mps 759 mmHg 60%
    12:00 +15°C° 0 mm 2 mps 759 mmHg 58%
    13:00 +14°C° 0 mm 3 mps 758 mmHg 60%
    14:00 +14°C° 0 mm 3 mps 758 mmHg 62%
    15:00 +14°C° 0 mm 4 mps 757 mmHg 64%
    16:00 +13°C° 0 mm 4 mps 757 mmHg 65%
    17:00 +13°C° 0 mm 4 mps 756 mmHg 67%
    18:00 +12°C° 0 mm 4 mps 756 mmHg 68%
    19:00 +11°C° 0 mm 4 mps 756 mmHg 75%
    20:00 +11°C° 0 mm 3 mps 756 mmHg 82%
    21:00 +10°C° 0 mm 3 mps 755 mmHg 88%
    22:00 +9°C° 0 mm 3 mps 755 mmHg 91%
    23:00 +9°C° 0 mm 2 mps 755 mmHg 93%
    Mostrar más